Weather History for Ontario, OR

Change the Weather History Date:

Wednesday, September 26, 2012

  Actual Average Record
Temperature  
Mean Temperature 64 °F 59 °F  
Max Temperature 82 °F 77 °F 92 °F (1962)
Min Temperature 46 °F 41 °F 26 °F (1972)
Degree Days  
Heating Degree Days 1 7  
Month to date heating degree days 36 87  
Since 1 July heating degree days 36 103  
Cooling Degree Days 0 0  
Month to date cooling degree days 68 56  
Year to date cooling degree days 1085 849  
Growing Degree Days 14 (Base 50)    
Moisture  
Dew Point 46 °F    
Average Humidity 57    
Maximum Humidity 86    
Minimum Humidity 28    
Precipitation  
Precipitation 0.00 in 0.01 in 0.63 in (2001)
Month to date precipitation 0.08 0.34  
Year to date precipitation 5.83 6.58  
Sea Level Pressure  
Sea Level Pressure 29.99 in    
Wind  
Wind Speed 1 mph (SSE)    
Max Wind Speed 6 mph    
Max Gust Speed 8 mph    
Visibility 8 miles    
Events      
T = Trace of Precipitation, MM = Missing Value Source: NWS Daily Summary

Daily Weather History Graph

Daily Weather History Graph

Search for Another Location

Airport:

Trip Planner

Search our weather history database for the weather conditions in past years. The results will help you decide how hot, cold, wet, or windy it might be!

Date:

Astronomy

Sep. 26, 2012 Rise Set
Actual Time 7:40 AM MDT 7:36 PM MDT
Civil Twilight 7:11 AM MDT 8:05 PM MDT
Nautical Twilight 6:38 AM MDT 8:39 PM MDT
Astronomical Twilight 6:03 AM MDT 9:13 PM MDT
Moon 5:43 PM MDT (9/26) 4:05 AM MDT (9/26)
Length of Visible Light 12h 53m
Length of Day
11h 56m
Waxing Gibbous, 88% of the Moon is Illuminated
Sep 26
Waxing Gibbous
Sep 29
Full
Oct 8
Last Quarter
Oct 15
New
Oct 21
First Quarter

Hourly Weather History & Observations

Time (MDT) Temp. Dew Point Humidity Pressure Visibility Wind Dir Wind Speed Gust Speed Precip Events Conditions
4:53 AM 52.0 °F 43.0 °F 71% 29.97 in 10.0 mi Calm Calm - N/A   Clear
5:53 AM 51.1 °F 46.0 °F 83% 29.98 in 8.0 mi Calm Calm - N/A   Clear
6:53 AM 48.0 °F 44.1 °F 86% 30.00 in 8.0 mi Calm Calm - N/A   Clear
7:53 AM 48.0 °F 45.0 °F 89% 30.03 in 6.0 mi Calm Calm - N/A   Clear
8:53 AM 50.0 °F 42.1 °F 74% 30.05 in 10.0 mi Calm Calm - N/A   Clear
9:53 AM 57.0 °F 45.0 °F 64% 30.06 in 9.0 mi Calm Calm - N/A   Clear
10:53 AM 61.0 °F 46.0 °F 58% 30.06 in 8.0 mi Calm Calm - N/A   Clear
11:53 AM 68.0 °F 46.0 °F 45% 30.04 in 9.0 mi Calm Calm - N/A   Clear
12:53 PM 72.0 °F 48.0 °F 43% 30.03 in 8.0 mi Variable 4.6 mph - N/A   Clear
1:53 PM 73.9 °F 48.0 °F 40% 30.01 in 8.0 mi Calm Calm - N/A   Clear
2:53 PM 77.0 °F 48.9 °F 37% 29.99 in 8.0 mi Variable 4.6 mph - N/A   Clear
3:53 PM 79.0 °F 46.0 °F 31% 29.96 in 9.0 mi SSE 4.6 mph - N/A   Clear
4:53 PM 81.0 °F 46.9 °F 30% 29.95 in 10.0 mi East 3.5 mph - N/A   Clear
5:53 PM 81.0 °F 45.0 °F 28% 29.94 in 10.0 mi Calm Calm - N/A   Clear
6:53 PM 79.0 °F 45.0 °F 30% 29.94 in 9.0 mi Calm Calm - N/A   Clear
7:53 PM 69.1 °F 48.9 °F 49% 29.96 in 4.0 mi Calm Calm - N/A   Haze
8:27 PM 66.2 °F 48.2 °F 52% 29.96 in 2.5 mi Calm Calm - N/A   Haze
8:34 PM 66.2 °F 48.2 °F 52% 29.97 in 4.0 mi Calm Calm - N/A   Haze
8:53 PM 64.0 °F 48.9 °F 58% 29.97 in 4.0 mi Calm Calm - N/A   Haze
9:53 PM 60.1 °F 48.0 °F 64% 29.98 in 8.0 mi Calm Calm - N/A   Clear
10:53 PM 57.0 °F 46.0 °F 67% 30.00 in 9.0 mi West 4.6 mph - N/A   Clear
11:53 PM 54.0 °F 45.0 °F 72% 30.01 in 9.0 mi Calm Calm - N/A   Clear